Renton, WA

4:27 AM PDT on April 23, 2017 (GMT -0700)
Renton Municipal

Weather History for KRNT - October, 2013

Change the Weather History Date:

Thursday, October 3, 2013

  Actual Average Record
Temperature  
Mean Temperature 50 °F -  
Max Temperature 57 °F 64 °F 73 °F (1999)
Min Temperature 46 °F 48 °F 43 °F (2000)
Degree Days  
Heating Degree Days 14    
Moisture  
Dew Point 48 °F    
Average Humidity 91    
Maximum Humidity 100    
Minimum Humidity 67    
Precipitation  
Precipitation 0.08 in - - ()
Sea Level Pressure  
Sea Level Pressure 30.34 in    
Wind  
Wind Speed 1 mph (NW)    
Max Wind Speed 6 mph    
Max Gust Speed -    
Visibility 8 miles    
Events Rain    
Averages and records for this station are not official NWS values.
T = Trace of Precipitation, MM = Missing Value Source: NWS Daily Summary

Daily Weather History Graph

Daily Weather History Graph

Search for Another Location

Airport or City:

Trip Planner

Search our weather history database for the weather conditions in past years. The results will help you decide how hot, cold, wet, or windy it might be!

Date:

Astronomy

Oct. 03, 2013 Rise Set
Actual Time 7:11 AM PDT 6:43 PM PDT
Civil Twilight 6:40 AM PDT 7:14 PM PDT
Nautical Twilight 6:04 AM PDT 7:49 PM PDT
Astronomical Twilight 5:28 AM PDT 8:25 PM PDT
Moon 5:46 AM PDT (10/3) 5:56 PM PDT (10/3)
Length of Visible Light 12h 33m
Length of Day
11h 32m
Waning Crescent, 2% of the Moon is Illuminated
Oct 3
Waning Crescent
Oct 4
New
Oct 11
First Quarter
Oct 18
Full
Oct 26
Last Quarter

Hourly Weather History & Observations

Time (PDT) Temp. Dew Point Humidity Pressure Visibility Wind Dir Wind Speed Gust Speed Precip Events Conditions
12:14 AM 48.2 °F 48.2 °F 100% 30.19 in 9.0 mi Calm Calm - N/A   Overcast
12:36 AM 48.2 °F 48.2 °F 100% 30.19 in 7.0 mi Calm Calm - N/A   Overcast
12:53 AM 48.9 °F 48.0 °F 97% 30.22 in 10.0 mi SE 3.5 mph - N/A   Overcast
1:51 AM 48.2 °F 48.2 °F 100% 30.22 in 7.0 mi Calm Calm - N/A   Overcast
1:53 AM 48.9 °F 48.0 °F 97% 30.24 in 7.0 mi Calm Calm - 0.00 in Rain Light Rain
2:04 AM 48.2 °F 48.2 °F 100% 30.22 in 7.0 mi Calm Calm - 0.00 in   Overcast
2:48 AM 48.2 °F 48.2 °F 100% 30.24 in 4.0 mi Calm Calm - 0.01 in Rain Light Rain
2:53 AM 48.9 °F 48.0 °F 97% 30.26 in 2.5 mi Calm Calm - 0.01 in Rain Light Rain
3:38 AM 48.2 °F 48.2 °F 100% 30.25 in 2.5 mi Calm Calm - 0.06 in Rain Light Rain
3:46 AM 48.2 °F 48.2 °F 100% 30.26 in 4.0 mi Calm Calm - 0.06 in   Overcast
3:53 AM 48.9 °F 48.0 °F 97% 30.28 in 4.0 mi Calm Calm - 0.06 in   Overcast
4:53 AM 48.9 °F 48.0 °F 97% 30.29 in 6.0 mi Calm Calm - 0.01 in   Overcast
5:30 AM 48.2 °F 48.2 °F 100% 30.28 in 10.0 mi Calm Calm - N/A   Overcast
5:53 AM 48.9 °F 48.0 °F 97% 30.32 in 8.0 mi Calm Calm - N/A   Overcast
6:53 AM 48.9 °F 48.0 °F 97% 30.33 in 7.0 mi Calm Calm - N/A   Overcast
7:41 AM 48.2 °F 48.2 °F 100% 30.33 in 5.0 mi Calm Calm - N/A   Overcast
7:53 AM 48.9 °F 48.0 °F 97% 30.35 in 4.0 mi Calm Calm - N/A   Overcast
8:53 AM 50.0 °F 48.0 °F 93% 30.37 in 6.0 mi Calm Calm - N/A   Overcast
9:53 AM 51.1 °F 48.0 °F 89% 30.39 in 6.0 mi Calm Calm - N/A   Overcast
10:09 AM 51.8 °F 48.2 °F 88% 30.38 in 8.0 mi Calm Calm - N/A   Overcast
10:53 AM 52.0 °F 48.0 °F 86% 30.40 in 9.0 mi NW 4.6 mph - N/A   Mostly Cloudy
11:53 AM 53.1 °F 46.9 °F 80% 30.41 in 10.0 mi NW 3.5 mph - N/A   Overcast
12:53 PM 54.0 °F 46.0 °F 75% 30.42 in 10.0 mi NW 3.5 mph - N/A   Overcast
1:53 PM 55.9 °F 46.9 °F 72% 30.43 in 10.0 mi Variable 3.5 mph - N/A   Overcast
2:53 PM 55.0 °F 46.9 °F 74% 30.43 in 10.0 mi NW 5.8 mph - N/A   Overcast
3:53 PM 55.0 °F 46.9 °F 74% 30.43 in 10.0 mi Calm Calm - N/A   Overcast
4:53 PM 55.9 °F 46.9 °F 72% 30.43 in 10.0 mi Calm Calm - N/A   Overcast
5:53 PM 55.9 °F 45.0 °F 67% 30.44 in 10.0 mi Calm Calm - N/A   Overcast
6:53 PM 55.0 °F 48.0 °F 77% 30.44 in 10.0 mi Calm Calm - N/A   Overcast
7:53 PM 52.0 °F 48.9 °F 89% 30.45 in 10.0 mi Calm Calm - N/A   Partly Cloudy
9:53 PM 48.9 °F 46.9 °F 93% 30.46 in 10.0 mi Calm Calm - N/A   Clear
10:53 PM 46.9 °F 46.0 °F 97% 30.47 in 10.0 mi Calm Calm - N/A   Clear
11:53 PM 46.0 °F 45.0 °F 96% 30.48 in 9.0 mi Calm Calm - N/A   Clear